Flag for Germany Weather past 2 weeks in Bad Kreuznach, Rhineland-Palatinate, Germany

Now
48 °F

Overcast.


Feels Like: 45 °F
Forecast: 50 / 52 °F
Wind: 7 mph from Southwest

Location: Wiesbaden Airport

Current Time: Mar 28, 2015 at 7:17:05 PM

Latest Report: Mar 28, 2015 at 6:58 PM


Visibility: N/A

Pressure: 30.01 "Hg

Humidity: 83%

Dew point: 43 °F

Location of Bad KreuznachLocation

Historic Weather in Bad Kreuznach — Graph

°F

Bad Kreuznach temperature yesterday

Maximum temperature yesterday: 50 °F (at 3:58 PM)
Minimum temperature yesterday: 37 °F (at 5:58 AM)
Average temperature yesterday: 45 °F

Past Weeks' High & Low Weather Summary

 TemperatureHumidityPressure
High66 °F (Mar 18, 3:58 PM)100% (Mar 15, 5:58 AM)30.31 "Hg (Mar 15, 5:58 AM)
Low31 °F (Mar 23, 4:58 AM)40% (Mar 18, 3:58 PM)29.60 "Hg (Mar 25, 2:58 PM)
Average46 °F73%30.11 "Hg
* Reported Mar 13 5:58 PM — Mar 28 5:58 PM, Bad Kreuznach, Weather by CustomWeather, © 2015

Note: Actual official high and low records may vary slightly from our data, if they occured in-between our weather recording intervals... More about our weather records

Advertising

Bad Kreuznach weather history for previous 24 hours

 ConditionsComfort  
Time TempWeatherWind HumidityBarometerVisibility
5:58 PM
Sat, Mar 28
48 °FOvercast.12 mph82%30.03 "HgN/A
4:58 PM52 °FLight rain. Overcast.15 mph67%30.03 "HgN/A
4:03 PM54 °FLight rain. Overcast.16 mph58%30.02 "HgN/A
3:58 PM52 °FOvercast.14 mph62%30.03 "HgN/A
2:58 PM54 °FOvercast.14 mph48%30.05 "HgN/A
1:58 PM55 °FOvercast.16 mph48%30.06 "HgN/A
12:58 PM55 °FPartly sunny.15 mph44%30.10 "HgN/A
11:58 AM53 °FScattered clouds.13 mph48%30.13 "HgN/A
10:58 AM50 °FSunny.5 mph58%30.18 "HgN/A
9:58 AM46 °FOvercast.No wind66%30.21 "HgN/A
8:58 AM43 °FOvercast.1 mph76%30.22 "HgN/A
7:58 AM41 °FOvercast.2 mph83%30.23 "HgN/A
6:58 AM37 °FPartly sunny.2 mph87%30.23 "HgN/A
5:58 AM39 °FOvercast.2 mph87%30.23 "HgN/A
4:58 AM40 °FOvercast.2 mph85%30.24 "HgN/A
3:58 AM39 °FOvercast.2 mph87%30.24 "HgN/A
2:58 AM41 °FOvercast.3 mph81%30.24 "HgN/A
1:58 AM41 °FOvercast.3 mph81%30.25 "HgN/A
12:58 AM42 °FOvercast.2 mph77%30.24 "HgN/A
11:58 PM
Fri, Mar 27
44 °FOvercast.2 mph69%30.24 "HgN/A
10:58 PM43 °FOvercast.2 mph76%30.23 "HgN/A
9:58 PM45 °FOvercast.2 mph66%30.23 "HgN/A
8:58 PM46 °FOvercast.3 mph62%30.22 "HgN/A
7:58 PM46 °FPassing clouds.6 mph59%30.20 "HgN/A
Weather by CustomWeather, © 2015

See weather overviewHow to use our weather pages